Weather in Aizpute

Latvia     56°43′15″N   21°36′07″E
temp.,
°C
wind,
m/s
gust,
m/s
humid.,
%
clouds,
%
prec.,
mm/h
press.,
hPa
HPBL,
m
13 june, sun
sun1300:00+11wsw369314 0.0 1003116
03:00+12wnw4109161 0.1 1003406
06:00+12nw5129436 0.2 1005725
09:00+15nnw6127442 0.2 10081117
12:00+17nnw712520 0.0 10111400
15:00+16nnw812530 0.0 10141119
18:00+15nnw712540 0.0 10161124
21:00+12nnw49701 0.0 1017579
14 june, mon
mon1400:00+8nw22900 0.0 101936
03:00+8nw22905 0.0 102038
06:00+9wsw118246 0.0 102010
09:00+15sw115556 0.0 1020339
12:00+19ssw334546 0.0 10201051
15:00+20sw55425 0.0 10191321
18:00+19sw574515 0.0 1017775
21:00+14ssw511765 0.0 1016479
15 june, tue
tue1500:00+12ssw51488100 0.0 1015445
03:00+15sw61378100 0.0 1013581
06:00+15sw51185100 0.1 1012637
09:00+14wsw4898100 0.6 1013508
12:00+17w5854100 0.0 10141103
15:00+18w57490 0.0 10141219
18:00+17wnw46500 0.0 10151258
21:00+14wsw38740 0.0 1016380
16 june, wed
wed1600:00+10sw22951 0.0 101738
03:00+9s2295100 0.0 101822
06:00+10sse22915 0.0 101934
09:00+17sse346048 0.0 1019359
12:00+21s33445 0.0 10201325
15:00+22sw44445 0.0 10201744
18:00+20w44475 0.0 1021730
21:00+14wsw247385 0.0 1021112
17 june, thu
thu1700:00+10ssw22875 0.0 102219
03:00+9s228524 0.0 102322
06:00+10s23783 0.0 102352
09:00+17ssw24565 0.0 1024363
12:00+21ssw334519 0.0 10241103
15:00+24sw23446 0.0 10231508
18:00+24ssw24474 0.0 10231646
21:00+18nw11765 0.0 102318